Date String (YYYY-MM-DD hh:mm:ss) UTC,Instrument flags,Ambient pressure (hPa),Sample flow (lpm),Bypass flow (lpm),Sample temperature (°C),Ambient temperature (°C),ASC tube jacket temperature (°C),LED temperature (°C),Box temperature (°C),Sample RH (%),Span deviation,Mass concentration (μg/m³),Mass concentration (μg/m³),Mass concentration (μg/m³)
DateTimeUTC,F1_M11,P_M11,Q1_M11,Q2_M11,T1_M11,T2_M11,T3_M11,T4_M11,T5_M11,U1_M11,ZSPAN_M11,X2_M11,X0_M11,X1_M11
2022-11-14 01:00:00,,0823.7,5.01,0.00,23.5,21.9,00.0,32.4,25.3,07.6,0000.0,0003.30,0013.59,0002.38
2022-11-14 01:01:00,,0823.7,5.00,0.00,23.5,21.9,00.0,32.4,25.3,07.6,0000.0,0003.35,0014.06,0002.42
2022-11-14 01:02:00,,0823.7,5.00,0.00,23.5,21.9,00.0,32.4,25.3,07.6,0000.0,0003.39,0013.93,0002.46
2022-11-14 01:03:00,,0823.7,5.00,0.00,23.5,21.8,00.0,32.4,25.3,07.6,0000.0,0003.48,0014.15,0002.52
2022-11-14 01:04:00,,0823.8,4.99,0.00,23.5,21.8,00.0,32.4,25.3,07.6,0000.0,0003.52,0014.03,0002.54
2022-11-14 01:05:00,,0823.8,5.00,0.00,23.5,21.8,00.0,32.3,25.3,07.5,0000.0,0003.55,0013.33,0002.54
2022-11-14 01:06:00,,0823.8,5.00,0.00,23.4,21.8,00.0,32.3,25.3,07.5,0000.0,0003.57,0014.41,0002.56
2022-11-14 01:07:00,,0823.9,5.00,0.00,23.4,21.8,00.0,32.3,25.2,07.6,0000.0,0003.62,0014.73,0002.58
2022-11-14 01:08:00,,0823.9,5.00,0.00,23.4,21.7,00.0,32.3,25.2,07.6,0000.0,0003.69,0014.43,0002.59
2022-11-14 01:09:00,,0824.0,5.00,0.00,23.4,21.7,00.0,32.3,25.2,07.5,0000.0,0003.71,0013.99,0002.58
2022-11-14 01:10:00,,0824.0,5.02,0.00,23.4,21.7,00.0,32.3,25.2,07.5,0000.0,0003.72,0014.09,0002.57
2022-11-14 01:11:00,,0824.0,4.99,0.00,23.4,21.7,00.0,32.3,25.2,07.5,0000.0,0003.74,0014.87,0002.56
2022-11-14 01:12:00,,0824.0,5.00,0.00,23.4,21.8,00.0,32.3,25.2,07.5,0000.0,0003.70,0015.41,0002.56
2022-11-14 01:13:00,,0824.0,5.00,0.00,23.4,21.8,00.0,32.3,25.2,07.5,0000.0,0003.66,0015.89,0002.55
2022-11-14 01:14:00,,0824.0,5.00,0.00,23.4,21.8,00.0,32.2,25.2,07.4,0000.0,0003.60,0015.16,0002.53
2022-11-14 01:15:00,,0824.0,5.00,0.00,23.4,21.8,00.0,32.2,25.2,07.4,0000.0,0003.55,0014.77,0002.53
2022-11-14 01:16:00,,0824.0,5.01,0.00,23.4,21.8,00.0,32.2,25.2,07.4,0000.0,0003.56,0014.45,0002.54
2022-11-14 01:17:00,,0824.1,5.00,0.00,23.4,21.8,00.0,32.2,25.2,07.4,0000.0,0003.54,0013.61,0002.54
2022-11-14 01:18:00,,0824.1,5.00,0.00,23.4,21.8,00.0,32.2,25.2,07.4,0000.0,0003.53,0013.06,0002.53
2022-11-14 01:19:00,,0824.1,5.00,0.00,23.4,21.8,00.0,32.2,25.2,07.4,0000.0,0003.50,0012.99,0002.53
2022-11-14 01:20:00,,0824.1,5.00,0.00,23.4,21.8,00.0,32.2,25.2,07.3,0000.0,0003.48,0013.13,0002.53
2022-11-14 01:21:00,,0824.1,4.99,0.00,23.4,21.8,00.0,32.2,25.2,07.3,0000.0,0003.47,0012.91,0002.53
2022-11-14 01:22:00,,0824.2,4.99,0.00,23.4,21.8,00.0,32.2,25.2,07.4,0000.0,0003.43,0012.11,0002.54
2022-11-14 01:23:00,,0824.2,5.01,0.00,23.3,21.8,00.0,32.2,25.2,07.4,0000.0,0003.48,0012.15,0002.55
2022-11-14 01:24:00,,0824.2,5.00,0.00,23.3,21.8,00.0,32.2,25.2,07.4,0000.0,0003.50,0011.66,0002.55
2022-11-14 01:25:00,,0824.2,5.01,0.00,23.3,21.8,00.0,32.2,25.2,07.2,0000.0,0003.48,0011.50,0002.57
2022-11-14 01:26:00,,0824.3,4.99,0.00,23.3,21.8,00.0,32.2,25.2,07.2,0000.0,0003.49,0011.48,0002.58
2022-11-14 01:27:00,,0824.2,5.02,0.00,23.3,21.8,00.0,32.2,25.2,07.2,0000.0,0003.48,0011.20,0002.59
2022-11-14 01:28:00,,0824.3,4.99,0.00,23.3,21.7,00.0,32.2,25.1,07.2,0000.0,0003.45,0011.03,0002.59
2022-11-14 01:29:00,,0824.2,5.00,0.00,23.3,21.7,00.0,32.2,25.2,07.2,0000.0,0003.46,0011.17,0002.60
2022-11-14 01:30:00,,0824.2,5.01,0.00,23.3,21.7,00.0,32.2,25.2,07.2,0000.0,0003.43,0011.20,0002.60
2022-11-14 01:31:00,,0824.3,5.01,0.00,23.3,21.8,00.0,32.1,25.2,07.2,0000.0,0003.43,0010.87,0002.63
2022-11-14 01:32:00,,0824.3,5.01,0.00,23.3,21.8,00.0,32.1,25.1,07.2,0000.0,0003.44,0010.65,0002.65
2022-11-14 01:33:00,,0824.3,4.99,0.00,23.3,21.8,00.0,32.1,25.1,07.2,0000.0,0003.46,0011.09,0002.67
2022-11-14 01:34:00,,0824.4,5.01,0.00,23.3,21.8,00.0,32.1,25.1,07.2,0000.0,0003.44,0011.27,0002.69
2022-11-14 01:35:00,,0824.4,5.01,0.00,23.3,21.8,00.0,32.1,25.1,07.2,0000.0,0003.45,0010.64,0002.70
2022-11-14 01:36:00,,0824.4,4.99,0.00,23.3,21.8,00.0,32.1,25.1,07.2,0000.0,0003.45,0009.83,0002.71
2022-11-14 01:37:00,,0824.4,5.02,0.00,23.3,21.8,00.0,32.1,25.1,07.2,0000.0,0003.47,0010.32,0002.73
2022-11-14 01:38:00,,0824.4,5.00,0.00,23.3,21.8,00.0,32.1,25.1,07.2,0000.0,0003.47,0010.09,0002.75
2022-11-14 01:39:00,,0824.4,5.00,0.00,23.3,21.8,00.0,32.1,25.1,07.2,0000.0,0003.55,0010.49,0002.77
2022-11-14 01:40:00,,0824.5,4.99,0.00,23.3,21.8,00.0,32.1,25.1,07.2,0000.0,0003.54,0010.34,0002.80
2022-11-14 01:41:00,,0824.4,4.99,0.00,23.3,21.7,00.0,32.1,25.1,07.2,0000.0,0003.59,0010.21,0002.80
2022-11-14 01:42:00,,0824.4,5.00,0.00,23.3,21.7,00.0,32.1,25.1,07.1,0000.0,0003.61,0010.34,0002.80
2022-11-14 01:43:00,,0824.5,5.00,0.00,23.3,21.7,00.0,32.1,25.1,07.2,0000.0,0003.59,0010.39,0002.80
2022-11-14 01:44:00,,0824.5,5.01,0.00,23.3,21.7,00.0,32.1,25.1,07.2,0000.0,0003.57,0009.92,0002.79
2022-11-14 01:45:00,,0824.5,4.99,0.00,23.3,21.7,00.0,32.1,25.1,07.2,0000.0,0003.55,0009.01,0002.79
2022-11-14 01:46:00,,0824.5,4.99,0.00,23.3,21.7,00.0,32.1,25.1,07.2,0000.0,0003.52,0009.17,0002.79
2022-11-14 01:47:00,,0824.6,5.01,0.00,23.2,21.7,00.0,32.1,25.1,07.2,0000.0,0003.53,0009.69,0002.78
2022-11-14 01:48:00,,0824.7,5.01,0.00,23.2,21.7,00.0,32.1,25.1,07.2,0000.0,0003.51,0009.27,0002.74
2022-11-14 01:49:00,,0824.9,5.00,0.00,23.2,21.7,00.0,32.1,25.1,07.2,0000.0,0003.50,0009.00,0002.71
2022-11-14 01:50:00,,0824.9,5.00,0.00,23.2,21.7,00.0,32.1,25.1,07.1,0000.0,0003.47,0008.52,0002.71
2022-11-14 01:51:00,,0824.6,5.01,0.00,23.2,21.6,00.0,32.1,25.0,07.2,0000.0,0003.48,0008.26,0002.70
2022-11-14 01:52:00,,0824.7,5.01,0.00,23.2,21.6,00.0,32.1,25.0,07.1,0000.0,0003.45,0008.07,0002.71
2022-11-14 01:53:00,,0824.7,4.98,0.00,23.2,21.6,00.0,32.0,25.0,07.2,0000.0,0003.43,0008.35,0002.70
2022-11-14 01:54:00,,0824.6,5.01,0.00,23.2,21.6,00.0,32.0,25.0,07.2,0000.0,0003.44,0009.24,0002.72
2022-11-14 01:55:00,,0824.6,4.99,0.00,23.2,21.6,00.0,32.0,25.0,07.2,0000.0,0003.42,0009.47,0002.71
2022-11-14 01:56:00,,0824.6,5.00,0.00,23.2,21.6,00.0,32.0,25.0,07.3,0000.0,0003.45,0009.58,0002.70
2022-11-14 01:57:00,,0824.6,5.01,0.00,23.2,21.6,00.0,32.0,25.0,07.3,0000.0,0003.45,0009.26,0002.70
2022-11-14 01:58:00,,0824.6,5.00,0.00,23.2,21.6,00.0,32.0,25.0,07.2,0000.0,0003.48,0009.14,0002.71
2022-11-14 01:59:00,,0824.6,5.00,0.00,23.1,21.5,00.0,32.0,25.0,07.2,0000.0,0003.50,0008.98,0002.74
